BEIDOU-2 IGSO-2

Last updated on Fri Dec 19 2025 00:02:50 GMT+0000 (Coordinated Universal Time)

1 37256U 10068A 25352.62261956 -.00000200 00000+0 00000+0 0 9993 2 37256 47.8753 274.0762 0048372 216.3496 289.0532 1.00284828 54980
UTC large
Height (km)
Speed (km/s)
/
Latitude / Longitude
Inclination (degrees)
Orbital Period (minutes)
Azimuth
Elevation
Range (km)
Doppler Factor

Next 0 passes for location: London (51.5072 / 0.1276)

Sorry there are no passes over London.